Wind_Speed
46 46 46 45 45 45 44 44 44 44 44 43 43 43 43 43 43 44 44 45 45 45 45 46 46 45 45 46 47 47 46 46 45 45 45 45 46 47
45 45 45 45 44 44 44 43 44 45 44 43 43 43 43 43 43 44 44 45 46 47 47 46 46 46 46 47 48 47 47 46 46 45 45 45 46 46
43 44 44 44 45 44 43 43 43 43 43 42 43 42 42 42 43 43 44 45 46 46 47 47 46 46 47 48 47 46 46 46 46 46 46 46 46 46
41 41 42 42 43 43 43 43 43 43 43 42 43 42 42 43 43 43 44 45 46 46 46 46 46 47 47 47 47 46 45 45 45 46 46 46 46 45
39 40 41 41 41 41 41 42 43 42 42 42 42 42 42 42 42 42 44 45 46 46 47 47 47 47 47 47 46 46 45 45 45 45 45 45 45 45
38 39 40 40 39 39 39 40 40 40 41 42 42 42 42 42 42 42 43 44 45 46 46 47 47 47 46 46 46 45 45 45 45 44 44 44 44 45
37 37 37 38 38 38 38 38 38 39 39 40 41 41 41 41 42 43 43 44 44 45 44 45 45 45 44 44 43 44 44 44 44 44 44 44 44 44
36 36 37 37 37 37 36 37 37 38 38 38 39 40 41 42 43 42 43 43 43 43 43 43 43 43 43 42 43 43 43 43 43 43 42 42 42 42
35 35 35 35 35 36 36 37 37 37 37 38 39 40 41 42 42 43 42 42 42 43 42 42 42 42 42 41 41 41 41 41 41 41 40 40 41 41
34 34 35 35 35 34 35 37 37 37 37 38 39 39 40 41 41 41 42 42 42 42 42 41 40 39 39 39 39 39 39 39 39 39 39 39 39 38
33 34 34 35 35 35 36 37 38 38 37 38 38 39 39 40 40 40 40 40 40 39 39 39 38 37 36 36 37 38 38 38 38 37 37 37 37 37
33 34 35 35 35 35 36 36 37 37 36 37 37 38 38 38 39 39 39 39 39 38 38 38 36 36 35 36 37 37 37 37 36 36 36 36 36 35
33 33 33 33 34 34 35 35 36 35 36 36 37 37 38 38 38 38 38 38 38 37 36 36 35 36 36 35 35 36 36 36 35 34 35 35 34 32
33 33 33 32 33 33 33 33 34 35 35 36 36 37 38 38 38 38 38 37 36 35 34 34 35 35 35 34 33 33 33 33 33 33 33 32 31 29
32 32 32 31 32 32 32 32 33 33 34 35 35 36 36 36 37 36 36 35 34 33 33 33 34 33 33 32 31 31 31 31 31 31 30 29 28 28
31 31 32 31 32 32 32 33 33 33 33 34 34 35 35 35 35 34 34 33 32 32 32 32 31 30 29 29 29 29 29 29 29 29 28 26 25 26
30 30 30 30 30 31 30 31 31 31 32 33 33 33 33 33 32 32 31 31 30 29 29 29 29 27 27 27 27 27 28 28 27 27 25 24 24 24
28 29 29 28 29 29 29 29 29 30 30 31 31 31 31 31 30 30 29 29 28 28 27 27 27 28 28 27 27 27 27 27 26 25 23 22 22 22
28 28 28 27 27 27 27 27 28 28 29 29 29 28 28 28 28 28 27 27 27 27 26 26 26 26 26 25 25 25 25 25 24 23 21 20 20 20
25 25 24 24 24 24 25 25 26 26 27 27 27 27 27 26 26 26 26 26 25 25 24 24 24 24 24 24 23 23 24 23 22 20 19 18 18 18
24 23 23 23 23 23 24 24 24 24 25 25 25 25 25 24 24 24 24 23 22 22 22 23 23 23 23 22 21 21 21 20 19 18 16 15 15 15
23 24 24 24 24 23 23 23 23 23 23 23 23 22 22 21 21 22 22 21 21 21 21 21 21 22 21 20 19 18 18 17 15 15 15 14 14 13
22 23 23 22 23 23 23 23 22 22 22 21 21 20 20 20 19 20 20 20 19 19 19 19 19 19 18 17 16 16 15 14 13 12 13 13 13 13
Wind_Direction
265 265 265 266 266 267 267 268 270 271 273 274 275 276 276 276 276 276 276 278 280 282 282 282 282 283 283 284 283 282 281 281 280 280 281 281 281 282
265 265 265 265 265 266 267 268 270 271 272 273 274 275 275 275 274 275 277 279 281 281 282 282 282 283 284 285 285 283 282 281 280 280 281 282 283 283
266 265 265 265 265 266 266 268 270 271 271 272 274 275 275 275 274 276 277 279 281 282 282 282 282 283 284 285 286 284 283 282 281 280 281 282 283 282
266 266 266 265 266 266 267 268 269 271 272 272 273 275 275 275 276 276 278 280 281 282 283 282 283 284 284 285 285 284 283 283 282 282 282 282 282 282
267 267 267 266 266 267 268 269 270 271 272 272 272 273 274 276 277 279 280 281 281 282 283 283 284 285 285 284 284 283 283 283 283 283 282 283 283 283
268 268 268 267 267 268 269 271 271 271 272 272 273 273 274 276 277 280 281 283 282 282 283 284 285 286 285 285 284 283 282 282 282 283 283 284 284 285
268 269 269 267 267 268 269 270 271 271 272 273 273 273 274 275 278 281 282 282 283 283 284 285 285 285 286 285 284 283 283 282 282 282 283 284 284 285
269 269 269 267 267 268 269 270 271 271 272 274 275 275 275 277 278 281 283 283 283 283 283 284 284 285 285 286 285 284 284 283 283 283 283 284 284 285
269 268 269 267 266 268 269 271 272 272 275 276 276 276 277 278 279 281 283 284 285 285 284 283 284 285 285 286 285 284 284 284 284 284 284 284 285 285
269 268 270 269 267 269 270 272 273 274 276 276 277 278 279 280 281 283 284 284 285 286 285 286 285 285 285 286 285 285 286 286 286 286 286 287 287 286
268 269 270 270 267 268 270 272 274 275 276 277 278 280 280 281 282 283 284 285 285 286 286 286 285 284 285 286 287 288 287 286 286 287 287 288 288 287
269 269 270 269 267 269 270 273 275 275 276 278 279 281 281 282 283 284 285 285 286 285 284 284 284 285 285 286 287 287 287 287 287 288 289 288 287 285
268 270 269 268 268 269 271 274 276 276 276 277 279 280 281 282 284 285 286 286 286 285 285 284 285 285 286 286 286 287 287 287 287 288 289 289 287 284
269 269 268 268 268 269 271 274 275 275 276 278 279 281 282 282 283 284 286 286 286 285 284 283 285 286 286 287 287 287 286 286 287 288 289 288 285 283
270 269 268 269 268 269 271 273 275 276 276 278 279 281 282 283 283 284 285 285 285 284 283 284 286 287 288 288 287 287 287 287 288 289 290 287 284 283
271 270 268 268 268 270 273 274 275 277 277 278 280 282 283 284 285 284 284 284 283 283 284 285 286 287 288 289 289 289 290 289 289 290 291 288 285 285
270 269 268 267 269 270 273 275 276 277 279 280 281 282 284 285 285 284 284 283 283 283 284 285 286 288 290 291 292 293 292 290 291 291 290 287 285 285
269 268 267 269 270 271 273 275 277 279 280 281 281 281 282 283 284 284 283 282 283 283 284 285 287 290 291 291 291 290 290 290 291 291 289 286 284 284
270 269 268 269 271 272 274 277 279 280 281 281 281 282 282 283 283 283 283 282 283 283 284 286 289 291 291 290 289 289 290 291 291 289 288 286 284 283
271 269 269 271 273 274 277 279 280 281 282 282 282 282 283 283 282 282 283 282 283 285 288 289 290 292 291 289 289 290 292 292 291 289 286 285 284 284
270 269 270 272 274 276 279 280 280 281 281 282 283 284 283 282 283 283 284 284 285 287 289 290 291 292 293 291 291 291 293 293 292 289 287 286 287 286
270 269 272 273 274 276 278 279 279 279 281 283 284 284 284 286 286 286 286 286 287 288 289 289 292 294 295 293 292 291 293 294 291 289 290 292 292 290
272 273 274 274 275 277 277 277 277 278 281 284 284 284 286 288 289 290 289 288 288 288 290 292 293 295 295 295 293 293 294 294 289 288 292 294 295 294
Height
5656 5657 5658 5659 5659 5660 5660 5660 5661 5661 5661 5660 5659 5657 5656 5655 5654 5653 5652 5650 5648 5646 5644 5642 5640 5638 5635 5633 5630 5628 5626 5624 5622 5620 5619 5617 5615 5613
5644 5644 5645 5646 5647 5648 5648 5648 5648 5649 5649 5649 5648 5647 5645 5644 5643 5642 5640 5639 5637 5635 5633 5631 5628 5626 5623 5621 5618 5615 5613 5611 5609 5608 5606 5604 5602 5600
5632 5632 5633 5634 5635 5636 5636 5637 5637 5637 5637 5638 5636 5635 5634 5633 5632 5630 5629 5627 5625 5623 5621 5619 5616 5614 5611 5609 5606 5603 5601 5599 5597 5595 5593 5591 5589 5587
5620 5621 5622 5623 5623 5624 5625 5625 5625 5625 5625 5626 5625 5624 5623 5622 5620 5619 5617 5615 5613 5611 5608 5606 5604 5602 5599 5596 5594 5591 5589 5587 5585 5583 5581 5579 5577 5574
5610 5610 5611 5612 5613 5613 5613 5614 5614 5614 5613 5614 5614 5612 5611 5610 5609 5607 5605 5603 5601 5598 5596 5594 5591 5589 5586 5584 5581 5579 5577 5575 5573 5570 5568 5566 5564 5562
5599 5600 5600 5601 5602 5602 5602 5602 5602 5602 5602 5602 5602 5601 5600 5599 5597 5596 5594 5591 5589 5586 5584 5581 5579 5576 5574 5572 5570 5568 5565 5563 5560 5558 5556 5554 5552 5549
5589 5590 5590 5590 5591 5591 5591 5592 5592 5591 5591 5590 5590 5589 5589 5587 5586 5585 5583 5580 5578 5575 5573 5570 5568 5566 5563 5560 5558 5555 5553 5551 5549 5546 5544 5542 5540 5538
5580 5580 5580 5580 5580 5581 5581 5581 5581 5581 5580 5579 5579 5578 5577 5576 5575 5573 5571 5569 5567 5565 5563 5560 5557 5555 5552 5549 5546 5544 5541 5539 5537 5535 5532 5530 5528 5526
5570 5570 5570 5570 5570 5571 5571 5571 5571 5570 5569 5569 5568 5567 5566 5566 5564 5563 5560 5557 5555 5553 5551 5550 5546 5544 5541 5538 5535 5533 5530 5528 5526 5523 5521 5519 5517 5515
5560 5560 5560 5560 5560 5561 5561 5561 5560 5560 5559 5559 5558 5557 5555 5554 5552 5551 5549 5547 5545 5541 5539 5538 5536 5533 5531 5527 5525 5522 5519 5517 5515 5512 5510 5508 5506 5504
5550 5550 5550 5550 5550 5551 5551 5551 5551 5550 5549 5548 5547 5545 5544 5542 5541 5539 5538 5536 5534 5532 5529 5527 5525 5523 5521 5518 5515 5512 5509 5507 5504 5502 5499 5497 5495 5493
5541 5541 5540 5540 5540 5540 5541 5541 5540 5540 5539 5538 5536 5535 5533 5532 5530 5528 5527 5525 5523 5521 5519 5516 5514 5512 5512 5510 5505 5502 5499 5496 5494 5491 5489 5487 5484 5482
5531 5531 5531 5531 5530 5530 5531 5531 5530 5530 5529 5528 5527 5525 5524 5522 5520 5518 5516 5514 5512 5510 5508 5506 5504 5502 5500 5499 5496 5492 5489 5487 5484 5482 5479 5477 5474 5472
5522 5522 5521 5521 5521 5521 5521 5521 5520 5520 5519 5518 5517 5516 5514 5512 5510 5508 5505 5503 5501 5500 5497 5496 5494 5492 5490 5488 5486 5483 5480 5477 5475 5473 5470 5468 5465 5463
5512 5512 5512 5511 5511 5512 5511 5511 5510 5510 5509 5508 5508 5506 5504 5502 5500 5498 5496 5494 5491 5489 5488 5486 5485 5482 5480 5478 5476 5474 5472 5469 5466 5464 5461 5459 5457 5455
5503 5502 5502 5502 5502 5502 5502 5502 5501 5500 5500 5499 5498 5496 5494 5492 5490 5489 5487 5485 5483 5481 5479 5477 5475 5473 5471 5469 5467 5465 5463 5460 5458 5455 5453 5451 5449 5447
5494 5494 5494 5494 5494 5494 5493 5493 5492 5491 5490 5489 5488 5487 5485 5483 5481 5479 5477 5476 5474 5473 5471 5469 5467 5465 5463 5461 5459 5457 5455 5453 5450 5448 5446 5444 5442 5440
5486 5485 5486 5486 5486 5485 5485 5485 5484 5482 5481 5480 5479 5477 5476 5475 5473 5471 5469 5468 5466 5465 5463 5461 5459 5458 5456 5454 5452 5449 5447 5445 5443 5440 5438 5437 5436 5433
5478 5478 5478 5478 5478 5478 5477 5476 5475 5474 5472 5471 5470 5469 5468 5466 5465 5463 5461 5460 5459 5457 5455 5454 5452 5450 5448 5446 5444 5441 5440 5438 5436 5434 5432 5430 5429 5428
5470 5471 5471 5471 5471 5470 5470 5468 5467 5466 5465 5464 5463 5461 5460 5459 5457 5456 5454 5453 5451 5450 5448 5447 5445 5443 5441 5439 5437 5435 5432 5430 5429 5427 5426 5425 5424 5422
5464 5464 5464 5464 5463 5463 5462 5461 5460 5459 5458 5457 5456 5455 5453 5452 5450 5449 5447 5446 5445 5443 5442 5440 5438 5436 5434 5432 5430 5428 5426 5424 5422 5421 5420 5419 5419 5418
5457 5457 5457 5456 5456 5456 5455 5454 5453 5453 5452 5451 5449 5448 5447 5445 5443 5442 5441 5440 5438 5437 5436 5434 5432 5430 5428 5426 5424 5423 5421 5419 5417 5416 5414 5414 5413 5412
5450 5450 5450 5449 5449 5448 5448 5447 5447 5446 5445 5444 5443 5442 5441 5439 5438 5436 5435 5434 5432 5431 5430 5428 5426 5424 5422 5420 5419 5417 5416 5415 5413 5412 5411 5410 5409 5408